DW3982 Weather Reports


time (UTC)temp
F
wind
direction
speed
knots
gust
knots
rain 1hr
in
rain 24hr
in
rain mn
in
humidity
%
barometer
mb
20260507040347 54 59 1.7 1.7 0.00 0.00 0.00 92 1010.9
20260507035844 55 318 3.5 4.3 0.00 0.50 0.50 91 1010.8
20260507035339 55 69 0.9 1.7 0.00 0.50 0.50 90 1010.8
20260507034837 55 356 2.6 4.3 0.00 0.50 0.50 90 1010.8
20260507034334 55 6 2.6 4.3 0.00 0.50 0.50 89 1010.7
20260507033832 55 168 2.6 5.2 0.00 0.50 0.50 90 1010.4
20260507033330 55 37 2.6 4.3 0.00 0.50 0.50 90 1010.7
20260507032826 55 75 3.5 4.3 0.00 0.50 0.50 90 1010.6
20260507032322 56 1 2.6 4.3 0.00 0.50 0.50 89 1010.5
20260507031819 56 347 7.0 9.6 0.00 0.50 0.50 89 1010.6
20260507031316 56 18 6.1 7.8 0.00 0.50 0.50 89 1010.7
20260507030812 56 324 0.9 1.7 0.00 0.50 0.50 90 1010.9
20260507030310 56 15 2.6 5.2 0.00 0.50 0.50 90 1010.7
20260507025807 57 40 5.2 9.6 0.00 0.50 0.50 90 1010.6
20260507025306 57 83 6.1 7.8 0.00 0.50 0.50 89 1010.5
20260507024802 57 137 3.5 5.2 0.00 0.50 0.50 89 1010.4
20260507024259 57 19 2.6 2.6 0.00 0.50 0.50 89 1010.4
20260507023755 58 344 3.5 4.3 0.00 0.50 0.50 88 1010.3
20260507023251 57 99 3.5 5.2 0.00 0.50 0.50 88 1010.1
20260507022749 57 27 1.7 2.6 0.00 0.50 0.50 89 1010.3
20260507022245 58 1 1.7 1.7 0.00 0.50 0.50 88 1010.4
20260507021741 58 20 4.3 7.0 0.00 0.50 0.50 88 1010.2
20260507021237 58 27 1.7 2.6 0.00 0.50 0.50 88 1010.1
20260507020735 58 218 2.6 2.6 0.00 0.50 0.50 88 1010.2
20260507020232 58 353 4.3 5.2 0.00 0.50 0.50 88 1010.3
20260507015729 58 300 1.7 2.6 0.00 0.50 0.50 88 1010.4
20260507015226 58 332 7.0 9.6 0.00 0.50 0.50 88 1010.3
20260507014723 59 28 2.6 4.3 0.00 0.50 0.50 87 1010.3
20260507014219 59 325 7.8 12.2 0.00 0.50 0.50 87 1010.2
20260507013716 59 23 8.7 12.2 0.00 0.50 0.50 88 1010.4
20260507013214 59 336 3.5 5.2 0.00 0.50 0.50 88 1010.4
20260507012711 59 340 7.0 10.4 0.00 0.50 0.50 87 1010.2
20260507012206 59 6 7.0 9.6 0.00 0.50 0.50 89 1010.5
20260507011704 59 17 3.5 4.3 0.00 0.50 0.50 89 1010.4
20260507011200 59 32 7.0 12.2 0.00 0.50 0.50 90 1010.2
20260507010700 59 6 5.2 9.6 0.00 0.50 0.50 91 1010.1
20260507010156 59 75 3.5 5.2 0.00 0.50 0.50 92 1010.3
20260507005654 59 16 2.6 2.6 0.00 0.50 0.50 93 1010.1
20260507005154 59 40 5.2 7.0 0.00 0.50 0.50 94 1009.8
20260507004652 59 347 5.2 7.0 0.00 0.50 0.50 94 1009.8
20260507004149 59 83 4.3 7.0 0.00 0.50 0.50 94 1010.0
20260507003646 59 355 1.7 2.6 0.00 0.50 0.50 94 1009.7
20260507003145 59 72 2.6 4.3 0.00 0.50 0.50 95 1009.9
20260507002642 59 2 4.3 5.2 0.00 0.50 0.50 95 1009.7
20260507002138 59 334 5.2 5.2 0.00 0.50 0.50 96 1009.6
20260507001635 60 353 5.2 7.8 0.00 0.50 0.50 98 1009.3
20260507001133 60 71 3.5 4.3 0.00 0.50 0.50 99 1009.3
20260507000629 60 355 2.6 4.3 0.00 0.50 0.50 99 1009.3
20260507000124 60 111 4.3 7.0 0.00 0.50 0.50 99 1009.2
20260506235622 61 68 2.6 5.2 0.00 0.50 0.50 99 1008.9
20260506235122 61 24 2.6 2.6 0.00 0.50 0.50 99 1008.9
20260506234619 62 36 3.5 5.2 0.00 0.50 0.50 99 1008.6
20260506234116 62 26 1.7 2.6 0.00 0.50 0.50 99 1008.5
20260506233613 62 300 3.5 5.2 0.00 0.50 0.50 99 1008.1
20260506233110 62 259 2.6 4.3 0.00 0.50 0.50 99 1008.3
20260506232606 62 280 0.9 1.7 0.00 0.50 0.50 99 1008.5
20260506232102 62 346 0.9 1.7 0.00 0.50 0.50 99 1008.3
20260506231559 62 277 5.2 7.8 0.00 0.50 0.50 99 1008.3
20260506231057 62 291 6.1 9.6 0.00 0.50 0.50 99 1008.3
20260506230553 62 260 3.5 5.2 0.00 0.50 0.50 99 1008.5
20260506230051 62 296 2.6 4.3 0.07 0.50 0.50 99 1008.3
20260506225548 63 316 5.2 7.0 0.12 0.50 0.50 99 1008.2
20260506225044 63 312 1.7 2.6 0.28 0.49 0.49 99 1008.3
20260506224541 63 280 2.6 5.2 0.40 0.49 0.49 99 1008.1
20260506224037 63 259 4.3 5.2 0.50 0.44 0.44 99 1008.2
20260506223533 63 314 9.6 10.4 0.66 0.42 0.42 98 1008.2
20260506223030 64 259 1.7 4.3 0.59 0.37 0.37 98 1008.3
20260506222527 64 276 3.5 4.3 0.24 0.31 0.31 97 1008.1
20260506222023 64 310 2.6 2.6 0.00 0.27 0.27 97 1008.1
20260506221521 64 287 2.6 2.6 0.07 0.27 0.27 96 1008.0
20260506221019 65 264 2.6 2.6 0.07 0.27 0.27 95 1007.9
20260506220514 65 250 1.7 4.3 0.00 0.26 0.26 94 1008.0
20260506220010 65 285 2.6 2.6 0.00 0.26 0.26 93 1007.9
20260506215508 66 280 1.7 2.6 0.00 0.26 0.26 92 1007.9
20260506215003 66 30 1.7 1.7 0.00 0.26 0.26 91 1007.8
20260506214500 66 264 1.7 4.3 0.00 0.26 0.26 91 1007.8
20260506213957 66 273 1.7 2.6 0.00 0.26 0.26 91 1007.7
20260506213455 66 264 0.9 2.6 0.00 0.26 0.26 91 1007.8
20260506212952 66 226 2.6 2.6 0.00 0.26 0.26 90 1007.5
20260506212448 66 346 6.1 7.8 0.00 0.26 0.26 90 1007.5
20260506211943 66 335 4.3 7.0 0.00 0.26 0.26 90 1007.5
20260506211439 66 267 3.5 4.3 0.00 0.26 0.26 90 1007.3
20260506210937 66 282 2.6 4.3 0.00 0.26 0.26 90 1007.1
20260506210433 66 281 6.1 7.8 0.00 0.26 0.26 89 1007.4
20260506205931 66 285 3.5 5.2 0.00 0.26 0.26 89 1007.2
20260506205426 67 252 2.6 4.3 0.00 0.26 0.26 89 1007.4
20260506204923 67 330 6.1 7.8 0.00 0.26 0.26 88 1007.2
20260506204421 67 306 7.0 7.8 0.00 0.26 0.26 88 1007.1
20260506203918 67 302 9.6 10.4 0.00 0.26 0.26 88 1007.4
20260506203415 67 279 4.3 5.2 0.00 0.26 0.26 88 1007.2
20260506202912 67 13 2.6 4.3 0.00 0.26 0.26 89 1007.3
20260506202409 66 337 10.4 13.0 0.00 0.26 0.26 89 1007.4
20260506201905 67 319 2.6 4.3 0.00 0.26 0.26 89 1007.3
20260506201403 67 274 3.5 5.2 0.00 0.26 0.26 89 1007.3
20260506200859 66 289 7.0 10.4 0.00 0.26 0.26 89 1007.1
20260506200355 66 10 5.2 7.0 0.00 0.26 0.26 90 1007.4
20260506195852 66 231 5.2 7.8 0.00 0.26 0.26 90 1007.4
20260506195349 66 319 7.8 9.6 0.00 0.26 0.26 89 1007.3
20260506194846 66 251 4.3 7.0 0.00 0.26 0.26 89 1007.3
20260506194343 66 254 5.2 7.8 0.00 0.26 0.26 89 1007.3
20260506193840 65 247 5.2 7.0 0.00 0.26 0.26 90 1007.5
20260506193337 65 316 11.3 16.5 0.00 0.26 0.26 90 1007.6
20260506192833 65 225 5.2 7.8 0.00 0.26 0.26 90 1007.6
20260506192330 66 225 6.1 7.0 0.00 0.26 0.26 89 1007.7
20260506191827 66 326 4.3 7.8 0.00 0.26 0.26 89 1007.5
20260506191323 65 239 7.0 7.8 0.00 0.26 0.26 90 1007.6
20260506190820 65 273 1.7 2.6 0.00 0.26 0.26 90 1007.6
20260506190317 65 323 13.0 19.1 0.00 0.26 0.26 90 1007.6
20260506185814 64 301 8.7 13.0 0.00 0.26 0.26 91 1007.5
20260506185311 64 328 0.9 1.7 0.00 0.26 0.26 92 1007.6
20260506184808 64 237 4.3 7.0 0.00 0.26 0.26 92 1007.6
20260506184305 64 273 3.5 4.3 0.00 0.26 0.26 92 1007.7
20260506183802 64 273 7.8 9.6 0.00 0.26 0.26 93 1008.0
20260506183257 63 174 5.2 7.0 0.00 0.26 0.26 94 1007.8
20260506182754 63 206 7.0 7.8 0.00 0.26 0.26 94 1007.9
20260506182252 63 220 1.7 4.3 0.00 0.26 0.26 96 1007.9
20260506181750 63 257 5.2 7.0 0.00 0.26 0.26 96 1007.8
20260506181247 62 251 3.5 4.3 0.00 0.26 0.26 97 1007.9
20260506180744 62 255 2.6 4.3 0.00 0.26 0.26 97 1007.9
20260506180240 62 241 2.6 4.3 0.00 0.26 0.26 98 1008.1
20260506175736 62 263 0.9 1.7 0.00 0.26 0.26 98 1008.0
20260506175233 61 212 4.3 7.0 0.00 0.26 0.26 98 1008.0
20260506174731 61 256 8.7 10.4 0.00 0.26 0.26 98 1008.2
20260506174227 62 268 7.8 9.6 0.00 0.26 0.26 97 1008.1
20260506173725 61 250 0.0 0.0 0.00 0.26 0.26 97 1008.2
20260506173222 61 259 4.3 5.2 0.00 0.26 0.26 97 1008.2
20260506172719 61 188 4.3 5.2 0.00 0.26 0.26 98 1007.9
20260506172215 61 179 4.3 7.0 0.00 0.26 0.26 98 1008.2
20260506171713 61 230 2.6 2.6 0.00 0.26 0.26 98 1008.1
20260506171210 61 162 4.3 9.6 0.00 0.26 0.26 98 1007.9
20260506170708 61 267 5.2 7.0 0.00 0.26 0.26 99 1008.2
20260506170204 61 295 4.3 5.2 0.00 0.26 0.26 99 1008.1
20260506165703 61 265 7.8 9.6 0.00 0.26 0.26 99 1007.9
20260506165159 60 260 4.3 7.0 0.00 0.26 0.26 99 1008.1
20260506164656 60 202 4.3 5.2 0.00 0.26 0.26 99 1008.2
20260506164154 60 210 5.2 9.6 0.00 0.26 0.26 99 1008.1
20260506163650 60 195 2.6 4.3 0.00 0.26 0.26 99 1007.9
20260506163145 60 238 4.3 7.0 0.00 0.26 0.26 99 1008.1
20260506162641 60 303 5.2 7.0 0.00 0.26 0.26 99 1008.0
20260506162139 60 220 5.2 7.0 0.00 0.26 0.26 99 1008.2
20260506161636 60 256 4.3 5.2 0.00 0.26 0.26 99 1008.1
20260506161133 60 182 3.5 4.3 0.00 0.26 0.26 99 1008.3
20260506160630 60 224 4.3 5.2 0.00 0.26 0.26 99 1008.3
20260506160127 60 214 4.3 5.2 0.00 0.26 0.26 99 1008.2
20260506155626 60 203 1.7 1.7 0.00 0.26 0.26 99 1008.2
20260506155122 60 171 8.7 10.4 0.07 0.26 0.26 99 1008.1
20260506153225 60 170 3.5 5.2 0.00 0.25 0.25 99 1008.2
20260506152721 60 190 7.8 12.2 0.05 0.25 0.25 99 1007.6
20260506152219 60 213 7.8 10.4 0.12 0.25 0.25 99 1007.8
20260506151718 60 173 4.3 5.2 0.12 0.24 0.24 99 1008.0
20260506151214 60 140 4.3 5.2 0.12 0.23 0.23 99 1008.6
20260506150710 60 180 2.6 5.2 0.19 0.22 0.22 99 1008.8
20260506150207 60 157 4.3 7.0 0.24 0.21 0.21 99 1008.7
20260506145704 60 212 4.3 7.0 0.24 0.20 0.20 99 1009.2
20260506145201 60 253 4.3 5.2 0.19 0.18 0.18 99 1009.1
20260506144658 60 215 1.7 2.6 0.05 0.15 0.15 99 1009.3
20260506144155 60 261 1.7 2.6 0.07 0.14 0.14 99 1009.1
20260506143653 60 256 0.9 1.7 0.07 0.14 0.14 99 1009.1
20260506143150 60 236 4.3 7.0 0.07 0.14 0.14 99 1009.1
20260506142649 60 256 6.1 9.6 0.07 0.13 0.13 99 1009.0
20260506142146 60 214 2.6 4.3 0.07 0.13 0.13 99 1009.0
20260506141644 60 235 4.3 7.0 0.12 0.13 0.13 98 1008.8
20260506141142 60 216 3.5 4.3 0.05 0.12 0.12 98 1008.8
20260506140639 60 122 5.2 7.0 0.07 0.11 0.11 98 1008.9
20260506140136 60 163 3.5 4.3 0.07 0.11 0.11 98 1008.6
20260506135633 60 260 7.0 7.8 0.05 0.10 0.10 97 1008.5
20260506135129 60 183 3.5 5.2 0.12 0.10 0.10 97 1008.5
20260506134626 61 177 6.1 7.8 0.12 0.09 0.09 96 1008.2
20260506134121 61 222 5.2 7.8 0.12 0.08 0.08 95 1008.6
20260506133619 61 220 2.6 4.3 0.12 0.07 0.07 95 1008.8
20260506133116 61 175 5.2 5.2 0.05 0.06 0.06 94 1008.7
20260506132613 61 188 3.5 5.2 0.05 0.06 0.06 94 1008.9
20260506132110 61 231 1.7 2.6 0.00 0.05 0.05 94 1008.6
20260506131608 61 179 4.3 5.2 0.00 0.05 0.05 94 1008.8
20260506131104 62 203 2.6 2.6 0.00 0.05 0.05 94 1008.9
20260506130601 62 187 1.7 2.6 0.07 0.05 0.05 93 1009.1
20260506130058 62 190 1.7 2.6 0.07 0.05 0.05 92 1008.8
20260506125557 61 180 3.5 5.2 0.05 0.04 0.04 92 1008.8
20260506125054 61 266 0.0 0.0 0.05 0.04 0.04 93 1009.1
20260506124551 62 230 0.9 2.6 0.07 0.03 0.03 92 1009.1
20260506124049 62 187 1.7 1.7 0.07 0.03 0.03 91 1009.0
20260506123547 62 244 2.6 2.6 0.00 0.02 0.02 89 1009.0
20260506123045 62 212 0.0 1.7 0.07 0.02 0.02 89 1009.1
20260506122541 62 214 2.6 4.3 0.07 0.02 0.02 88 1009.4
20260506122040 62 244 3.5 5.2 0.00 0.01 0.01 87 1009.2
20260506121537 62 221 5.2 7.0 0.00 0.01 0.01 86 1009.3
20260506121033 63 236 1.7 1.7 0.00 0.01 0.01 86 1009.4
20260506120531 63 314 1.7 2.6 0.00 0.01 0.01 86 1009.3
20260506120028 63 253 3.5 5.2 0.05 0.01 0.01 85 1009.2
20260506115526 63 191 5.2 7.8 0.05 0.01 0.01 83 1009.2
20260506115024 63 224 4.3 7.0 0.00 0.00 0.00 83 1008.8
20260506114521 63 248 2.6 4.3 0.00 0.00 0.00 83 1008.9
20260506114020 63 211 1.7 4.3 0.00 0.00 0.00 83 1008.8
20260506113517 63 227 4.3 5.2 0.00 0.00 0.00 82 1008.7
20260506113014 64 226 0.9 2.6 0.00 0.00 0.00 81 1008.7
20260506112511 64 217 3.5 7.0 0.00 0.00 0.00 80 1008.6
20260506112008 64 206 0.9 1.7 0.00 0.00 0.00 79 1008.6
20260506111506 64 173 2.6 4.3 0.00 0.00 0.00 78 1008.6
20260506111003 65 166 1.7 2.6 0.00 0.00 0.00 76 1008.3
20260506110501 65 168 4.3 7.0 0.00 0.00 0.00 74 1008.3
20260506105957 65 186 6.1 7.0 0.00 0.00 0.00 74 1008.2
20260506105453 65 185 6.1 7.8 0.00 0.00 0.00 73 1008.6
20260506104951 65 214 3.5 4.3 0.00 0.00 0.00 73 1008.1
20260506104449 65 165 6.1 7.0 0.00 0.00 0.00 72 1008.0
20260506103947 66 194 5.2 7.0 0.00 0.00 0.00 72 1007.8
20260506103444 66 154 2.6 2.6 0.00 0.00 0.00 72 1007.9
20260506102940 66 239 4.3 7.0 0.00 0.00 0.00 71 1008.1
20260506102439 66 216 2.6 5.2 0.00 0.00 0.00 71 1007.9
20260506101936 66 250 6.1 10.4 0.00 0.00 0.00 71 1008.0
20260506101432 66 151 0.9 1.7 0.00 0.00 0.00 70 1007.9
20260506100929 66 204 5.2 7.0 0.00 0.00 0.00 70 1007.8
20260506100427 66 209 2.6 5.2 0.00 0.00 0.00 69 1007.9
20260506095925 66 200 5.2 7.0 0.00 0.00 0.00 68 1007.8
20260506095424 67 201 2.6 2.6 0.00 0.00 0.00 68 1007.8
20260506094919 67 153 4.3 5.2 0.00 0.00 0.00 68 1007.7
20260506094418 67 252 4.3 5.2 0.00 0.00 0.00 68 1007.8
20260506093915 67 202 3.5 4.3 0.00 0.00 0.00 68 1007.9
20260506093413 67 252 2.6 2.6 0.00 0.00 0.00 67 1007.7
20260506092911 67 186 2.6 5.2 0.00 0.00 0.00 68 1007.7
20260506092409 67 265 5.2 7.0 0.00 0.00 0.00 67 1007.9
20260506091905 67 154 2.6 2.6 0.00 0.00 0.00 67 1007.9
20260506091403 67 208 0.9 2.6 0.00 0.00 0.00 67 1007.7
20260506090900 67 215 3.5 5.2 0.00 0.00 0.00 67 1008.0
20260506090357 67 169 5.2 7.8 0.00 0.00 0.00 66 1008.1
20260506085854 67 200 3.5 5.2 0.00 0.00 0.00 66 1008.1
20260506085350 67 229 10.4 12.2 0.00 0.00 0.00 65 1008.0
20260506084847 68 140 5.2 7.8 0.00 0.00 0.00 65 1008.2
20260506084344 67 251 5.2 7.0 0.00 0.00 0.00 65 1008.1
20260506083840 67 259 6.1 7.8 0.00 0.00 0.00 65 1008.1
20260506083338 68 183 2.6 5.2 0.00 0.00 0.00 65 1008.0
20260506082835 68 229 3.5 5.2 0.00 0.00 0.00 64 1008.1
20260506082332 68 243 8.7 12.2 0.00 0.00 0.00 64 1008.2
20260506081828 68 264 7.8 7.8 0.00 0.00 0.00 63 1008.1
20260506081326 68 269 5.2 5.2 0.00 0.00 0.00 63 1008.2
20260506080823 68 212 4.3 7.0 0.00 0.00 0.00 62 1008.0
20260506080320 68 262 4.3 7.0 0.00 0.00 0.00 62 1008.0
20260506073304 69 208 2.6 2.6 0.00 0.00 0.00 61 1008.3
20260506072800 69 217 2.6 4.3 0.00 0.00 0.00 61 1008.6
20260506072258 69 219 2.6 4.3 0.00 0.00 0.00 61 1008.2
20260506071756 69 232 1.7 2.6 0.00 0.00 0.00 61 1008.7
20260506071254 69 278 3.5 4.3 0.00 0.00 0.00 60 1008.5
20260506070750 69 202 4.3 7.0 0.00 0.00 0.00 60 1008.2
20260506070247 69 340 1.7 1.7 0.00 0.00 0.00 60 1008.6
20260506062224 69 266 2.6 2.6 0.00 0.00 0.00 58 1009.0
20260506061720 69 240 1.7 2.6 0.00 0.00 0.00 58 1009.2
20260506061218 69 229 4.3 4.3 0.00 0.00 0.00 57 1009.0
20260506060716 69 240 4.3 5.2 0.00 0.00 0.00 57 1008.9
20260506060213 69 246 4.3 5.2 0.00 0.00 0.00 57 1009.1
20260506051145 70 22 3.5 7.0 0.00 0.00 0.00 52 1009.8
20260506050643 70 308 7.0 9.6 0.00 0.00 0.00 52 1009.6
20260506050140 70 242 7.0 7.8 0.00 0.00 0.00 51 1009.4
20260506045133 70 230 2.6 4.3 0.00 0.00 0.00 51 1009.4
20260506044631 70 52 1.7 2.6 0.00 0.00 0.00 50 1009.4
20260506044128 70 214 2.6 2.6 0.00 0.00 0.00 50 1009.4
20260506043625 70 266 6.1 7.0 0.00 0.00 0.00 49 1009.3
20260506043123 70 246 6.1 10.4 0.00 0.00 0.00 49 1009.4
20260506042622 70 248 4.3 7.0 0.00 0.00 0.00 49 1009.3
20260506042119 70 249 9.6 10.4 0.00 0.00 0.00 48 1009.5
20260506041618 70 172 1.7 4.3 0.00 0.00 0.00 49 1009.5
20260506041114 70 238 3.5 4.3 0.00 0.00 0.00 47 1009.4